Sacramento, CA
on Saturday, December 29, 2012

Saturday
Previous Day Next Day
Daily Summary
 ActualAverageRecord
Temperature
Mean Temperature - -  
Max Temperature 53 °F 52 °F 72 °F (1989)
Min Temperature 40 °F 38 °F 24 °F (1962)
Degree Days
Heating Degree Days 18    
Cooling Degree Days 0    
Moisture
Dew Point 37 °F   
Average Humidity 77    
Maximum Humidity 92    
Minimum Humidity 61    
Precipitation
Precipitation T in 0.11 in 1.21 in (2003)
Month to date precipitation 6.15 3.02  
Year to date precipitation 21.15 18.29  
Since 1 July precipitation 11.29 6.39  
Wind
Wind Speed 5 mph   
Max Wind Speed 14 mph   
Max Gust Speed 17 mph   
Visibility 8 miles   
Events     

Key: T is trace of precipitation, MM is missing value
Source: NWS Daily Summary
Time(PST)TemperatureDew PointHumidity Pressure Visibility Wind DirectionWind SpeedGust SpeedPrecipitationEvents Conditions
12:53 AM 41.0 °F 37.9 °F 89% 30.08 in 10.0 miles NNW 5.8 mph - N/A   Overcast
1:53 AM 41.0 °F 37.0 °F 86% 30.07 in 10.0 miles NNW 5.8 mph - N/A   Overcast
2:53 AM 39.9 °F 37.0 °F 89% 30.08 in 10.0 miles NNW 4.6 mph - N/A   Mostly Cloudy
3:53 AM 39.2 °F 37.4 °F 93% 30.07 in 10.0 miles North 4.6 mph - N/A   Overcast
4:53 AM 41.0 °F 37.0 °F 86% 30.06 in 10.0 miles NNW 6.9 mph - N/A   Overcast
5:53 AM 41.0 °F 37.0 °F 86% 30.06 in 10.0 miles NNW 6.9 mph - N/A   Overcast
6:53 AM 41.0 °F 37.0 °F 86% 30.06 in 10.0 miles NNW 10.4 mph - 0.00 in   Overcast
7:53 AM 41.0 °F 37.0 °F 86% 30.07 in 10.0 miles North 8.1 mph - N/A   Overcast
8:53 AM 41.0 °F 37.0 °F 86% 30.08 in 10.0 miles NNW 8.1 mph - N/A   Overcast
9:53 AM 44.1 °F 37.0 °F 76% 30.08 in 10.0 miles NNW 9.2 mph - N/A   Mostly Cloudy
10:53 AM 46.9 °F 37.9 °F 71% 30.07 in 10.0 miles NNW 12.7 mph - N/A   Clear
11:53 AM 48.9 °F 39.0 °F 69% 30.04 in 10.0 miles NNW 12.7 mph - N/A   Overcast
12:53 PM 48.9 °F 39.0 °F 69% 30.04 in 10.0 miles NW 10.4 mph - N/A   Overcast
1:53 PM 50.0 °F 37.9 °F 63% 30.03 in 10.0 miles NNW 9.2 mph - N/A   Overcast
2:53 PM 51.8 °F 39.2 °F 62% 30.03 in 10.0 miles NW 8.1 mph - N/A   Mostly Cloudy
3:53 PM 53.1 °F 37.9 °F 57% 30.03 in 10.0 miles NNW 3.5 mph - N/A   Clear
4:53 PM 46.9 °F 37.0 °F 68% 30.03 in 10.0 miles Calm Calm - N/A   Clear
5:53 PM 44.1 °F 37.9 °F 79% 30.04 in 10.0 miles Calm Calm - N/A   Mostly Cloudy
6:53 PM 41.0 °F 37.0 °F 86% 30.04 in 10.0 miles Calm Calm - N/A   Clear
7:53 PM 41.0 °F 37.0 °F 86% 30.06 in 10.0 miles Calm Calm - N/A   Scattered Clouds
8:53 PM 39.0 °F 36.0 °F 89% 30.07 in 10.0 miles Calm Calm - N/A   Clear
9:53 PM 37.9 °F 35.1 °F 89% 30.07 in 4.0 miles Calm Calm - N/A   Clear
10:36 PM 35.6 °F 35.6 °F 100% 30.07 in 2.0 miles Calm Calm - N/A   Clear
10:44 PM 37.4 °F 35.6 °F 93% 30.08 in 1.0 miles Calm Calm - N/A   Clear
10:53 PM 36.0 °F 35.1 °F 97% 30.08 in 0.8 miles Calm Calm - N/A   Clear
11:00 PM 35.6 °F 33.8 °F 93% 30.08 in 1.2 miles Calm Calm - N/A   Clear
11:18 PM 37.4 °F 33.8 °F 87% 30.09 in 0.8 miles Calm Calm - N/A   Clear
11:25 PM 35.6 °F 33.8 °F 93% 30.08 in 1.2 miles Calm Calm - N/A   Clear
11:37 PM 35.6 °F 33.8 °F 93% 30.08 in 3.0 miles Calm Calm - N/A   Clear
11:53 PM 36.0 °F 34.0 °F 93% 30.08 in 5.0 miles Calm Calm - N/A   Clear

Astronomy

Sunrise: 07:23 AM (PST) Moon Rise: 06:30 PM (PST) 12 / 29
Sunset: 04:53 PM (PST) Moon Set: 08:00 AM (PST) 12 / 29
Moon Phase
Dec. 29 Jan. 05 Jan. 11 Jan. 18 Jan. 27


Powered by Weather Underground, Inc.